Frankfort, KY

2:56 PM EDT on May 20, 2018 (GMT -0400)
Capital City

Weather History for KFFT - February, 2014

Change the Weather History Date:

Thursday, February 6, 2014

  Actual Average Record
Temperature  
Mean Temperature 20 °F 34 °F  
Max Temperature 25 °F 44 °F 68 °F (2008)
Min Temperature 14 °F 25 °F -6 °F (1966)
Degree Days  
Heating Degree Days 45 30  
Month to date heating degree days 202 185  
Since 1 July heating degree days 3347 3023  
Cooling Degree Days 0 0  
Month to date cooling degree days 0 0  
Year to date cooling degree days 0 0  
Moisture  
Dew Point 18 °F    
Average Humidity 87    
Maximum Humidity 100    
Minimum Humidity 74    
Precipitation  
Precipitation T in 0.11 in 1.76 in (1955)
Month to date precipitation 2.47 0.67  
Year to date precipitation 4.75 3.93  
Sea Level Pressure  
Sea Level Pressure 30.42 in    
Wind  
Wind Speed 4 mph (NW)    
Max Wind Speed 9 mph    
Max Gust Speed 14 mph    
Visibility 7 miles    
Events Snow    
T = Trace of Precipitation, MM = Missing Value Source: NWS Daily Summary

Daily Weather History Graph

Daily Weather History Graph

Search for Another Location

Airport or City:

Astronomy

Feb. 06, 2014 Rise Set
Actual Time 7:39 AM EST 6:08 PM EST
Civil Twilight 7:12 AM EST 6:35 PM EST
Nautical Twilight 6:40 AM EST 7:06 PM EST
Astronomical Twilight 6:10 AM EST 7:37 PM EST
Moon 11:39 AM EST (2/6) 12:54 AM EST (2/6)
Length of Visible Light 11h 23m
Length of Day
10h 28m
Waxing Crescent, 49% of the Moon is Illuminated
Feb 6
Waxing Crescent
Feb 6
First Quarter
Feb 14
Full
Feb 22
Last Quarter
Mar 1
New

Hourly Weather History & Observations

Time (EST) Temp. Windchill Dew Point Humidity Pressure Visibility Wind Dir Wind Speed Gust Speed Precip Events Conditions
12:53 AM 21.9 °F - 19.9 °F 92% 30.39 in 4.0 mi Calm Calm - N/A   Overcast
1:01 AM 21.0 °F - 19.9 °F 96% 30.36 in 4.0 mi Calm Calm - N/A   Overcast
1:53 AM 21.0 °F 16.2 °F 19.9 °F 96% 30.40 in 4.0 mi WNW 3.5 mph - 0.00 in   Overcast
2:53 AM 21.9 °F - 21.0 °F 96% 30.40 in 5.0 mi Calm Calm - 0.00 in   Overcast
3:53 AM 23.0 °F - 19.9 °F 88% 30.40 in 7.0 mi Calm Calm - N/A   Overcast
4:48 AM 21.2 °F 14.9 °F 19.4 °F 93% 30.37 in 5.0 mi NW 4.6 mph - 0.00 in Snow Light Snow
4:53 AM 21.9 °F 14.5 °F 19.9 °F 92% 30.41 in 4.0 mi NNW 5.8 mph - 0.00 in Snow Light Snow
5:05 AM 21.9 °F 14.5 °F 19.9 °F 92% 30.37 in 4.0 mi NW 5.8 mph - 0.00 in Snow Light Snow
5:30 AM 21.9 °F 13.4 °F 19.0 °F 89% 30.38 in 5.0 mi NNW 6.9 mph - 0.00 in Snow Light Snow
5:53 AM 21.9 °F 17.2 °F 19.0 °F 89% 30.42 in 5.0 mi NNW 3.5 mph - 0.00 in Snow Light Snow
6:16 AM 21.0 °F 13.4 °F 18.0 °F 88% 30.40 in 6.0 mi NNW 5.8 mph - 0.00 in   Overcast
6:37 AM 21.0 °F 16.2 °F 18.0 °F 88% 30.40 in 9.0 mi North 3.5 mph - 0.00 in   Overcast
6:53 AM 21.0 °F 16.2 °F 18.0 °F 88% 30.43 in 10.0 mi North 3.5 mph - 0.00 in   Overcast
7:31 AM 19.0 °F - 17.1 °F 92% 30.40 in 9.0 mi Calm Calm - N/A   Scattered Clouds
7:53 AM 17.1 °F - 15.1 °F 92% 30.43 in 7.0 mi Calm Calm - N/A   Partly Cloudy
8:53 AM 16.0 °F - 15.1 °F 96% 30.48 in 8.0 mi Calm Calm - N/A   Clear
9:53 AM 19.9 °F 13.4 °F 17.1 °F 89% 30.48 in 10.0 mi NW 4.6 mph - N/A   Mostly Cloudy
10:50 AM 24.8 °F 20.5 °F 19.4 °F 80% 30.45 in 10.0 mi NNW 3.5 mph - N/A   Mostly Cloudy
10:53 AM 24.1 °F 19.7 °F 19.0 °F 81% 30.49 in 10.0 mi NNW 3.5 mph - N/A   Mostly Cloudy
11:17 AM 24.1 °F 18.2 °F 17.1 °F 75% 30.45 in 10.0 mi NNE 4.6 mph - N/A   Mostly Cloudy
11:31 AM 24.1 °F 19.7 °F 18.0 °F 77% 30.45 in 10.0 mi NNW 3.5 mph - N/A   Scattered Clouds
11:51 AM 23.0 °F 17.0 °F 17.6 °F 80% 30.45 in 10.0 mi NW 4.6 mph - N/A   Mostly Cloudy
11:53 AM 23.0 °F 18.4 °F 17.1 °F 78% 30.48 in 10.0 mi NW 3.5 mph - N/A   Mostly Cloudy
12:53 PM 24.1 °F 18.2 °F 17.1 °F 75% 30.45 in 10.0 mi WNW 4.6 mph - N/A   Overcast
1:53 PM 24.1 °F 19.7 °F 18.0 °F 77% 30.42 in 6.0 mi West 3.5 mph - 0.00 in Snow Light Snow
2:53 PM 24.1 °F 18.2 °F 19.0 °F 81% 30.43 in 9.0 mi West 4.6 mph - 0.00 in   Overcast
3:53 PM 24.1 °F 15.2 °F 19.0 °F 81% 30.41 in 7.0 mi West 8.1 mph - 0.00 in   Overcast
4:53 PM 21.9 °F 14.5 °F 18.0 °F 85% 30.41 in 2.0 mi WNW 5.8 mph - 0.00 in Snow Light Snow
5:26 PM 21.9 °F 14.5 °F 18.0 °F 85% 30.38 in 1.8 mi NW 5.8 mph - 0.00 in Snow Light Snow
5:36 PM 21.9 °F 14.5 °F 18.0 °F 85% 30.38 in 2.5 mi WNW 5.8 mph - 0.00 in Snow Light Snow
5:43 PM 21.0 °F 11.4 °F 17.1 °F 85% 30.38 in 4.0 mi NW 8.1 mph - 0.00 in   Overcast
5:53 PM 21.0 °F 12.4 °F 17.1 °F 85% 30.42 in 10.0 mi WNW 6.9 mph - 0.00 in   Overcast
6:53 PM 19.9 °F 12.1 °F 16.0 °F 85% 30.44 in 10.0 mi WNW 5.8 mph - N/A   Overcast
7:53 PM 19.9 °F 14.9 °F 16.0 °F 85% 30.45 in 10.0 mi WNW 3.5 mph - N/A   Overcast
8:53 PM 19.0 °F - 15.1 °F 85% 30.45 in 10.0 mi Calm Calm - N/A   Overcast
9:53 PM 19.0 °F 11.1 °F 14.0 °F 81% 30.45 in 10.0 mi WNW 5.8 mph - N/A   Overcast
10:50 PM 17.6 °F 10.7 °F 14.0 °F 86% 30.39 in 10.0 mi NW 4.6 mph - N/A   Overcast
10:53 PM 18.0 °F 9.8 °F 14.0 °F 84% 30.43 in 10.0 mi NW 5.8 mph - N/A   Overcast
11:53 PM 17.1 °F 7.6 °F 12.9 °F 84% 30.43 in 10.0 mi NW 6.9 mph - N/A   Overcast